El Dorado, AR

4:05 AM CDT on March 24, 2017 (GMT -0500)
South Arkansas Regional At Goodwin

Weather History for KELD - May, 2013

Change the Weather History Date:

Monday, May 13, 2013

  Actual Average Record
Temperature  
Mean Temperature 63 °F 70 °F  
Max Temperature 80 °F 82 °F 94 °F (1916)
Min Temperature 45 °F 59 °F 39 °F (1960)
Degree Days  
Heating Degree Days 2 1  
Month to date heating degree days 61 14  
Since 1 July heating degree days 2712 2668  
Cooling Degree Days 0 6  
Month to date cooling degree days 16 65  
Year to date cooling degree days 95 164  
Growing Degree Days 13 (Base 50)    
Moisture  
Dew Point 48 °F    
Average Humidity 66    
Maximum Humidity 100    
Minimum Humidity 32    
Precipitation  
Precipitation 0.00 in 0.16 in 2.19 in (2014)
Month to date precipitation 0.35 2.16  
Year to date precipitation 14.38 20.09  
Snow  
Snow 0.00 in - - ()
Month to date snowfall 0.0  
Since 1 July snowfall 0.1  
Snow Depth 0.00 in    
Sea Level Pressure  
Sea Level Pressure 30.21 in    
Wind  
Wind Speed 4 mph (SSW)    
Max Wind Speed 15 mph    
Max Gust Speed 22 mph    
Visibility 10 miles    
Events      
T = Trace of Precipitation, MM = Missing Value Source: NWS Daily Summary

Daily Weather History Graph

Daily Weather History Graph

Search for Another Location

Airport or City:

Trip Planner

Search our weather history database for the weather conditions in past years. The results will help you decide how hot, cold, wet, or windy it might be!

Date:

Astronomy

May. 13, 2013 Rise Set
Actual Time 6:12 AM CDT 8:02 PM CDT
Civil Twilight 5:45 AM CDT 8:30 PM CDT
Nautical Twilight 5:12 AM CDT 9:03 PM CDT
Astronomical Twilight 4:37 AM CDT 9:38 PM CDT
Moon 9:00 AM CDT (5/13) 11:12 PM CDT (5/13)
Length of Visible Light 14h 44m
Length of Day
13h 50m
Waxing Crescent, 12% of the Moon is Illuminated
May 13
Waxing Crescent
May 17
First Quarter
May 24
Full
May 31
Last Quarter
Jun 8
New

Hourly Weather History & Observations

Time (CDT) Temp. Dew Point Humidity Pressure Visibility Wind Dir Wind Speed Gust Speed Precip Events Conditions
12:53 AM 50.0 °F 48.0 °F 93% 30.21 in 10.0 mi Calm Calm - N/A   Clear
1:53 AM 48.9 °F 48.0 °F 97% 30.20 in 10.0 mi Calm Calm - N/A   Clear
2:53 AM 48.9 °F 46.9 °F 93% 30.19 in 10.0 mi Calm Calm - N/A   Clear
3:53 AM 48.0 °F 46.0 °F 93% 30.19 in 10.0 mi Calm Calm - N/A   Clear
4:53 AM 46.9 °F 45.0 °F 93% 30.20 in 10.0 mi Calm Calm - N/A   Clear
5:53 AM 46.0 °F 44.1 °F 93% 30.21 in 10.0 mi Calm Calm - N/A   Clear
6:53 AM 46.9 °F 46.0 °F 97% 30.24 in 10.0 mi Calm Calm - N/A   Clear
7:53 AM 54.0 °F 50.0 °F 86% 30.26 in 10.0 mi Calm Calm - N/A   Clear
8:53 AM 62.1 °F 50.0 °F 65% 30.28 in 10.0 mi South 5.8 mph - N/A   Scattered Clouds
9:53 AM 66.0 °F 46.0 °F 48% 30.29 in 10.0 mi South 8.1 mph - N/A   Mostly Cloudy
10:53 AM 70.0 °F 48.0 °F 46% 30.28 in 10.0 mi SSW 5.8 mph - N/A   Clear
11:53 AM 73.9 °F 46.9 °F 38% 30.27 in 10.0 mi SSW 8.1 mph - N/A   Clear
12:53 PM 75.9 °F 48.9 °F 38% 30.25 in 10.0 mi South 5.8 mph - N/A   Clear
1:53 PM 78.1 °F 48.0 °F 35% 30.23 in 10.0 mi WSW 5.8 mph - N/A   Clear
3:53 PM 80.1 °F 48.0 °F 32% 30.18 in 10.0 mi SSW 11.5 mph - N/A   Clear
4:53 PM 80.1 °F 48.9 °F 34% 30.17 in 10.0 mi SW 9.2 mph 17.3 mph N/A   Clear
5:53 PM 79.0 °F 48.0 °F 34% 30.15 in 10.0 mi SSW 10.4 mph - N/A   Clear
6:53 PM 77.0 °F 46.4 °F 34% 30.15 in 10.0 mi SSW 11.5 mph 17.3 mph N/A   Clear
7:53 PM 72.0 °F 50.0 °F 46% 30.15 in 10.0 mi South 3.5 mph - N/A   Clear
8:53 PM 62.1 °F 53.1 °F 72% 30.16 in 10.0 mi Calm Calm - N/A   Clear
9:53 PM 60.1 °F 53.1 °F 78% 30.17 in 10.0 mi Calm Calm - N/A   Clear
10:53 PM 60.1 °F 53.1 °F 78% 30.17 in 10.0 mi Calm Calm - N/A   Clear
11:53 PM 57.9 °F 53.1 °F 84% 30.17 in 10.0 mi Calm Calm - N/A   Clear